Terminal Aerodrome Forecast
Issued by NWS King Salmon, AK

Home | Current Version | Previous Version | Text Only | Print | Product List | Glossary On
Versions: 1 2 3 4 5 6 7 8 9 10 11 12 13 14 15 16 17 18 19 20 21 22 23 24 25 26 27 28 29 30 31 32 33 34
000
FTAK31 PANC 300537
TAFAKN
TAF
PAKN 300537Z 3006/0106 11008KT P6SM FEW007 SCT040 BKN070
     FM300900 VRB04KT 5SM FU SCT005 BKN040
     FM301800 16006KT P6SM SCT050 BKN090
     FM010000 25008KT P6SM -SHRA BKN040=

USA.gov is the U.S. government's official web portal to all federal, state and local government web resources and services.